When you browse on this site, cookies collect data to enhance your experience and personalize the content and advertising you see.
Visit our Privacy Policy to learn more. By continuing to use the site, you agree to this use of cookies and data.
  • In Hungary
  • List of Countries
  • For 7 days
  • Water Temperature
  • Satellite Maps
  • Weather Map
  • News
  • Weather Widgets
  • user-avatar
    Login

    Hourly Weather Mezhgore

    Today, 22 January, Tuesday

    Time Temperature Precipitation Wind Pressure Humidity
    00:00 -16°C° 0.2 mm 4 mps 714 mmHg 92%
    01:00 -16°C° 0.2 mm 4 mps 713 mmHg 92%
    02:00 -15°C° 0.4 mm 4 mps 713 mmHg 91%
    03:00 -15°C° 0.4 mm 4 mps 712 mmHg 91%
    04:00 -14°C° 0.4 mm 5 mps 712 mmHg 90%
    05:00 -14°C° 0.5 mm 4 mps 711 mmHg 91%
    06:00 -12°C° 0.5 mm 4 mps 711 mmHg 92%
    07:00 -12°C° 0.5 mm 4 mps 710 mmHg 93%
    08:00 -12°C° 0.5 mm 4 mps 710 mmHg 93%
    09:00 -11°C° 0.5 mm 4 mps 709 mmHg 93%
    10:00 -11°C° 0.5 mm 4 mps 709 mmHg 93%
    11:00 -10°C° 0.6 mm 4 mps 708 mmHg 93%
    12:00 -10°C° 0.6 mm 4 mps 708 mmHg 93%
    13:00 -10°C° 0.6 mm 4 mps 708 mmHg 92%
    14:00 -9°C° 0.4 mm 4 mps 708 mmHg 93%
    15:00 -9°C° 0.4 mm 4 mps 708 mmHg 93%
    16:00 -8°C° 0.4 mm 4 mps 708 mmHg 93%
    17:00 -9°C° 0.2 mm 3 mps 708 mmHg 93%
    18:00 -10°C° 0.2 mm 3 mps 708 mmHg 94%
    19:00 -13°C° 0.2 mm 3 mps 708 mmHg 94%
    20:00 -14°C° 0.1 mm 3 mps 709 mmHg 95%
    21:00 -14°C° 0.1 mm 2 mps 710 mmHg 95%
    22:00 -15°C° 0.1 mm 2 mps 710 mmHg 96%
    23:00 -16°C° 0.1 mm 2 mps 711 mmHg 97%

    Tomorrow, 23 January, Wednesday

    Time Temperature Precipitation Wind Pressure Humidity
    00:00 -17°C° 0.1 mm 2 mps 712 mmHg 97%
    01:00 -15°C° 0.1 mm 1 mps 712 mmHg 97%
    02:00 -16°C° 0 mm 1 mps 713 mmHg 98%
    03:00 -18°C° 0 mm 1 mps 713 mmHg 98%
    04:00 -19°C° 0 mm 1 mps 713 mmHg 99%
    05:00 -20°C° 0 mm 1 mps 714 mmHg 99%
    06:00 -20°C° 0 mm 1 mps 714 mmHg 99%
    07:00 -21°C° 0 mm 1 mps 714 mmHg 99%
    08:00 -20°C° 0 mm 1 mps 714 mmHg 98%
    09:00 -20°C° 0 mm 1 mps 715 mmHg 97%
    10:00 -19°C° 0 mm 1 mps 715 mmHg 96%
    11:00 -18°C° 0 mm 1 mps 716 mmHg 94%
    12:00 -17°C° 0 mm 1 mps 716 mmHg 92%
    13:00 -16°C° 0 mm 1 mps 716 mmHg 90%
    14:00 -17°C° 0 mm 1 mps 716 mmHg 92%
    15:00 -18°C° 0 mm 1 mps 717 mmHg 94%
    16:00 -19°C° 0 mm 1 mps 717 mmHg 96%
    17:00 -20°C° 0 mm 1 mps 717 mmHg 97%
    18:00 -21°C° 0 mm 1 mps 717 mmHg 98%
    19:00 -23°C° 0 mm 1 mps 718 mmHg 98%
    20:00 -23°C° 0 mm 1 mps 718 mmHg 98%
    21:00 -23°C° 0 mm 1 mps 718 mmHg 98%
    22:00 -24°C° 0 mm 1 mps 719 mmHg 98%
    23:00 -24°C° 0 mm 1 mps 719 mmHg 98%

    Day after tomorrow, 24 January, Thursday

    Time Temperature Precipitation Wind Pressure Humidity
    00:00 -24°C° 0 mm 1 mps 720 mmHg 98%
    01:00 -24°C° 0 mm 1 mps 720 mmHg 98%
    02:00 -24°C° 0 mm 1 mps 720 mmHg 98%
    03:00 -24°C° 0 mm 1 mps 721 mmHg 98%
    04:00 -24°C° 0 mm 1 mps 721 mmHg 98%
    05:00 -24°C° 0 mm 1 mps 722 mmHg 98%
    06:00 -24°C° 0 mm 1 mps 722 mmHg 98%
    07:00 -23°C° 0 mm 1 mps 722 mmHg 98%
    08:00 -22°C° 0 mm 1 mps 723 mmHg 97%
    09:00 -21°C° 0 mm 1 mps 723 mmHg 96%
    10:00 -20°C° 0 mm 1 mps 724 mmHg 96%
    11:00 -18°C° 0 mm 1 mps 724 mmHg 94%
    12:00 -16°C° 0 mm 1 mps 724 mmHg 92%
    13:00 -14°C° 0 mm 1 mps 724 mmHg 90%
    14:00 -15°C° 0 mm 1 mps 724 mmHg 92%
    15:00 -15°C° 0 mm 1 mps 724 mmHg 93%
    16:00 -16°C° 0 mm 1 mps 724 mmHg 94%
    17:00 -16°C° 0 mm 1 mps 724 mmHg 93%
    18:00 -16°C° 0 mm 1 mps 723 mmHg 93%
    19:00 -16°C° 0 mm 1 mps 723 mmHg 92%
    20:00 -16°C° 0 mm 1 mps 723 mmHg 91%
    21:00 -15°C° 0 mm 1 mps 723 mmHg 90%
    22:00 -15°C° 0 mm 1 mps 722 mmHg 89%
    23:00 -16°C° 0.2 mm 2 mps 722 mmHg 90%

    25 January, Friday

    Time Temperature Precipitation Wind Pressure Humidity
    00:00 -16°C° 0.2 mm 2 mps 721 mmHg 91%
    01:00 -16°C° 0.2 mm 3 mps 721 mmHg 92%
    02:00 -15°C° 0.2 mm 3 mps 720 mmHg 92%
    03:00 -16°C° 0.2 mm 4 mps 720 mmHg 92%
    04:00 -15°C° 0.2 mm 4 mps 719 mmHg 91%
    05:00 -15°C° 0.3 mm 4 mps 719 mmHg 92%
    06:00 -14°C° 0.3 mm 5 mps 718 mmHg 92%
    07:00 -14°C° 0.3 mm 5 mps 718 mmHg 92%
    08:00 -14°C° 0.3 mm 5 mps 717 mmHg 92%
    09:00 -14°C° 0.3 mm 4 mps 717 mmHg 92%
    10:00 -14°C° 0.3 mm 4 mps 717 mmHg 93%
    11:00 -14°C° 0.2 mm 4 mps 717 mmHg 92%
    12:00 -14°C° 0.2 mm 4 mps 717 mmHg 92%
    13:00 -14°C° 0.2 mm 4 mps 717 mmHg 92%
    14:00 -13°C° 0.1 mm 3 mps 717 mmHg 92%
    15:00 -13°C° 0.1 mm 3 mps 717 mmHg 93%
    16:00 -12°C° 0.1 mm 2 mps 717 mmHg 94%
    17:00 -13°C° 0.1 mm 2 mps 717 mmHg 94%
    18:00 -14°C° 0.1 mm 2 mps 717 mmHg 95%
    19:00 -12°C° 0.1 mm 1 mps 717 mmHg 96%
    20:00 -13°C° 0 mm 1 mps 718 mmHg 97%
    21:00 -14°C° 0 mm 1 mps 718 mmHg 97%
    22:00 -15°C° 0 mm 1 mps 718 mmHg 97%
    23:00 -15°C° 0 mm 1 mps 718 mmHg 98%

    26 January, Saturday

    Time Temperature Precipitation Wind Pressure Humidity
    00:00 -16°C° 0 mm 0 mps 718 mmHg 98%
    01:00 -16°C° 0 mm 0 mps 718 mmHg 98%
    02:00 -16°C° 0 mm 0 mps 718 mmHg 97%
    03:00 -16°C° 0 mm 0 mps 718 mmHg 97%
    04:00 -16°C° 0 mm 0 mps 718 mmHg 96%
    05:00 -16°C° 0 mm 0 mps 718 mmHg 95%
    06:00 -15°C° 0 mm 0 mps 718 mmHg 93%
    07:00 -14°C° 0 mm 0 mps 718 mmHg 91%
    08:00 -13°C° 0 mm 0 mps 719 mmHg 90%
    09:00 -12°C° 0 mm 0 mps 719 mmHg 88%
    10:00 -11°C° 0 mm 0 mps 719 mmHg 87%
    11:00 -9°C° 0.1 mm 0 mps 719 mmHg 88%
    12:00 -8°C° 0.1 mm 0 mps 718 mmHg 88%
    13:00 -7°C° 0.1 mm 1 mps 718 mmHg 88%
    14:00 -7°C° 0.2 mm 1 mps 718 mmHg 91%
    15:00 -7°C° 0.2 mm 1 mps 718 mmHg 93%
    16:00 -7°C° 0.2 mm 1 mps 717 mmHg 96%
    17:00 -8°C° 0.3 mm 1 mps 717 mmHg 96%
    18:00 -8°C° 0.3 mm 1 mps 717 mmHg 96%
    19:00 -9°C° 0.3 mm 1 mps 717 mmHg 96%
    20:00 -9°C° 0.3 mm 1 mps 716 mmHg 96%
    21:00 -9°C° 0.3 mm 1 mps 716 mmHg 96%
    22:00 -9°C° 0.3 mm 1 mps 715 mmHg 96%
    23:00 -9°C° 0.2 mm 1 mps 715 mmHg 96%

    27 January, Sunday

    Time Temperature Precipitation Wind Pressure Humidity
    00:00 -9°C° 0.2 mm 1 mps 715 mmHg 95%
    01:00 -9°C° 0.2 mm 1 mps 714 mmHg 95%
    02:00 -9°C° 0.1 mm 1 mps 714 mmHg 95%
    03:00 -9°C° 0.1 mm 1 mps 714 mmHg 95%
    04:00 -9°C° 0.1 mm 1 mps 713 mmHg 95%
    05:00 -9°C° 0.1 mm 1 mps 713 mmHg 95%
    06:00 -9°C° 0.1 mm 1 mps 713 mmHg 95%
    07:00 -9°C° 0.1 mm 1 mps 712 mmHg 95%
    08:00 -8°C° 0 mm 1 mps 712 mmHg 95%
    09:00 -8°C° 0 mm 1 mps 712 mmHg 94%
    10:00 -7°C° 0 mm 1 mps 712 mmHg 93%
    11:00 -7°C° 0 mm 1 mps 711 mmHg 93%
    12:00 -6°C° 0 mm 1 mps 711 mmHg 92%
    13:00 -4°C° 0 mm 1 mps 711 mmHg 92%
    14:00 -4°C° 0 mm 1 mps 710 mmHg 92%
    15:00 -4°C° 0 mm 1 mps 710 mmHg 93%
    16:00 -4°C° 0 mm 1 mps 709 mmHg 94%
    17:00 -6°C° 0.1 mm 1 mps 709 mmHg 94%
    18:00 -7°C° 0.1 mm 1 mps 709 mmHg 95%
    19:00 -7°C° 0.1 mm 1 mps 709 mmHg 95%
    20:00 -8°C° 0.1 mm 1 mps 708 mmHg 95%
    21:00 -9°C° 0.1 mm 1 mps 708 mmHg 95%
    22:00 -10°C° 0.1 mm 1 mps 708 mmHg 95%
    23:00 -10°C° 0 mm 1 mps 708 mmHg 95%
    Show more